#�ϑ�����,���ϕ���,���ϕ���,�ő啗��,�ő啗����������,�ő�u�ԕ���,�ő�u�ԕ�����������
#(�N����),(m/s)   ,(16����),(m/s)   ,(16����)        ,(m/s)       ,(16����)            
2018/5/3 0:01,0.4,16,0.4,16,0,16
2018/5/3 0:02,0.3,16,0.4,16,0,5
2018/5/3 0:03,0.3,1,0.3,16,0,5
2018/5/3 0:04,0.2,1,0.3,16,0,5
2018/5/3 0:05,0.2,2,0.2,16,0,5
2018/5/3 0:06,0.2,2,0.2,16,0,5
2018/5/3 0:07,0.1,3,0.2,16,0.1,12
2018/5/3 0:08,0.1,4,0.1,16,0.1,12
2018/5/3 0:09,0,6,0.1,16,0.1,11
2018/5/3 0:10,0,8,0,16,0.1,13
2018/5/3 0:11,0,8,0,16,0.5,9
2018/5/3 0:12,0,9,0,16,0,10
2018/5/3 0:13,0,10,0,1,0.6,10
2018/5/3 0:14,0.1,10,0.1,1,1.1,11
2018/5/3 0:15,0.3,11,0.3,11,1.5,11
2018/5/3 0:16,0.4,11,0.4,11,1.6,11
2018/5/3 0:17,0.6,11,0.6,11,1.8,12
2018/5/3 0:18,0.7,11,0.7,11,1.4,12
2018/5/3 0:19,0.7,11,0.7,11,1.1,13
2018/5/3 0:20,0.8,11,0.8,11,0.6,14
2018/5/3 0:21,0.8,12,0.8,11,0.5,2
2018/5/3 0:22,0.8,12,0.8,11,0.6,5
2018/5/3 0:23,0.8,12,0.8,11,1.3,9
2018/5/3 0:24,0.9,12,0.9,12,2.1,10
2018/5/3 0:25,0.9,12,0.9,12,2.5,10
2018/5/3 0:26,1,12,1,12,2.6,11
2018/5/3 0:27,1.1,12,1.1,12,2.5,11
2018/5/3 0:28,1.1,11,1.1,12,2.2,10
2018/5/3 0:29,1.1,11,1.1,12,1.3,10
2018/5/3 0:30,1.1,11,1.1,12,1.1,12
2018/5/3 0:31,1.2,10,1.2,11,1.5,10
2018/5/3 0:32,1.3,11,1.3,10,1.6,10
2018/5/3 0:33,1.3,10,1.3,10,1,8
2018/5/3 0:34,1.2,10,1.3,10,1,11
2018/5/3 0:35,1.1,10,1.2,10,1.8,8
2018/5/3 0:36,0.9,10,1.1,10,1.4,10
2018/5/3 0:37,0.8,10,0.9,10,1,10
2018/5/3 0:38,0.8,10,0.8,10,1.6,12
2018/5/3 0:39,0.9,10,0.9,10,1.6,12
2018/5/3 0:40,0.8,10,0.9,10,1.3,13
2018/5/3 0:41,0.8,11,0.8,10,0.9,15
2018/5/3 0:42,0.7,11,0.8,11,0.5,14
2018/5/3 0:43,0.7,12,0.7,10,0.6,14
2018/5/3 0:44,0.7,12,0.7,10,0.9,11
2018/5/3 0:45,0.7,12,0.7,10,1,11
2018/5/3 0:46,0.6,12,0.7,10,0.5,13
2018/5/3 0:47,0.6,12,0.6,10,0.4,13
2018/5/3 0:48,0.5,12,0.6,10,0.9,11
2018/5/3 0:49,0.4,12,0.5,10,0.9,11
2018/5/3 0:50,0.4,12,0.4,10,0.6,11
2018/5/3 0:51,0.4,12,0.4,11,0.8,11
2018/5/3 0:52,0.4,12,0.4,11,0.5,13
2018/5/3 0:53,0.4,12,0.4,12,0.5,13
2018/5/3 0:54,0.4,12,0.4,12,0.3,13
2018/5/3 0:55,0.3,12,0.4,12,0.3,13
2018/5/3 0:56,0.3,12,0.3,12,0.6,10
2018/5/3 0:57,0.4,12,0.4,12,0.6,10
2018/5/3 0:58,0.3,12,0.3,12,0.5,10
2018/5/3 0:59,0.3,12,0.3,12,0.4,11
2018/5/3 1:00,0.3,12,0.3,12,0.1,9
2018/5/3 1:01,0.2,12,0.3,12,0.8,8
2018/5/3 1:02,0.2,12,0.2,12,0.8,10
2018/5/3 1:03,0.2,11,0.2,12,0.5,9
2018/5/3 1:04,0.3,11,0.3,12,1,10
2018/5/3 1:05,0.3,11,0.3,12,0.9,10
2018/5/3 1:06,0.3,10,0.3,12,0.3,11
2018/5/3 1:07,0.3,10,0.3,12,0.1,10
2018/5/3 1:08,0.2,10,0.3,12,0,9
2018/5/3 1:09,0.2,10,0.2,12,0.1,9
2018/5/3 1:10,0.2,10,0.2,12,0.1,14
2018/5/3 1:11,0.2,10,0.2,11,0.5,13
2018/5/3 1:12,0.2,10,0.2,11,0.4,13
2018/5/3 1:13,0.2,10,0.2,11,0.3,14
2018/5/3 1:14,0.2,11,0.2,11,0.5,13
2018/5/3 1:15,0.2,11,0.2,11,0.5,13
2018/5/3 1:16,0.2,12,0.2,10,0.3,13
2018/5/3 1:17,0.2,12,0.2,10,0.1,13
2018/5/3 1:18,0.2,13,0.2,10,0.1,12
2018/5/3 1:19,0.2,13,0.2,10,0.5,12
2018/5/3 1:20,0.3,13,0.3,13,0.6,12
2018/5/3 1:21,0.3,13,0.3,13,0.9,12
2018/5/3 1:22,0.4,13,0.4,13,1.4,13
2018/5/3 1:23,0.5,13,0.5,13,1.3,12
2018/5/3 1:24,0.5,13,0.5,13,1.1,13
2018/5/3 1:25,0.5,13,0.5,13,1,12
2018/5/3 1:26,0.6,13,0.6,13,1.1,12
2018/5/3 1:27,0.6,13,0.6,13,0.9,12
2018/5/3 1:28,0.6,13,0.6,13,0.4,12
2018/5/3 1:29,0.7,13,0.7,13,1,13
2018/5/3 1:30,0.7,13,0.7,13,0.8,13
2018/5/3 1:31,0.7,13,0.7,13,1,12
2018/5/3 1:32,0.6,13,0.7,13,0.5,14
2018/5/3 1:33,0.6,13,0.6,13,0.8,16
2018/5/3 1:34,0.5,13,0.6,13,0.8,16
2018/5/3 1:35,0.5,13,0.5,13,0.4,13
2018/5/3 1:36,0.4,13,0.5,13,0.6,12
2018/5/3 1:37,0.4,13,0.4,13,1.1,12
2018/5/3 1:38,0.5,13,0.5,13,0.9,13
2018/5/3 1:39,0.5,13,0.5,13,0.9,13
2018/5/3 1:40,0.4,13,0.5,13,0.3,12
2018/5/3 1:41,0.4,13,0.4,13,0,12
2018/5/3 1:42,0.3,13,0.4,13,0.3,14
2018/5/3 1:43,0.3,13,0.3,13,0.9,12
2018/5/3 1:44,0.4,12,0.4,13,1.1,12
2018/5/3 1:45,0.5,12,0.5,13,1.1,12
2018/5/3 1:46,0.5,13,0.5,13,0.9,13
2018/5/3 1:47,0.4,13,0.5,13,0.6,14
2018/5/3 1:48,0.4,13,0.4,13,0.6,1
2018/5/3 1:49,0.4,13,0.4,13,0.6,1
2018/5/3 1:50,0.4,14,0.4,12,0.3,1
2018/5/3 1:51,0.4,14,0.4,12,0.1,6
2018/5/3 1:52,0.4,14,0.4,12,0.4,9
2018/5/3 1:53,0.3,14,0.4,12,0.4,7
2018/5/3 1:54,0.3,16,0.3,12,0.8,6
2018/5/3 1:55,0.3,4,0.3,12,0.9,6
2018/5/3 1:56,0.2,5,0.3,13,0.5,10
2018/5/3 1:57,0.2,6,0.2,13,0.1,11
2018/5/3 1:58,0.2,7,0.2,13,0,14
2018/5/3 1:59,0.2,9,0.2,13,0,13
2018/5/3 2:00,0.2,9,0.2,14,0.4,4
2018/5/3 2:01,0.2,9,0.2,14,0.5,4
2018/5/3 2:02,0.2,7,0.2,14,0.3,4
2018/5/3 2:03,0.2,6,0.2,14,0,4
2018/5/3 2:04,0.1,6,0.2,1,0,4
2018/5/3 2:05,0.1,8,0.1,4,0,8
2018/5/3 2:06,0,6,0.1,5,0,9
2018/5/3 2:07,0,5,0,6,0,6
2018/5/3 2:08,0,5,0,7,0.1,4
2018/5/3 2:09,0.1,5,0.1,9,0.3,2
2018/5/3 2:10,0,4,0.1,9,0.4,2
2018/5/3 2:11,0,4,0,8,0.3,2
2018/5/3 2:12,0,4,0,7,0.4,2
2018/5/3 2:13,0.1,4,0.1,6,0.5,4
2018/5/3 2:14,0.1,3,0.1,6,1.1,3
2018/5/3 2:15,0.2,3,0.2,3,1,3
2018/5/3 2:16,0.2,3,0.2,3,0.5,3
2018/5/3 2:17,0.2,3,0.2,3,0.3,10
2018/5/3 2:18,0.2,3,0.2,3,0.6,5
2018/5/3 2:19,0.3,3,0.3,3,1,5
2018/5/3 2:20,0.4,4,0.4,4,1,6
2018/5/3 2:21,0.4,4,0.4,4,0.5,5
2018/5/3 2:22,0.4,4,0.4,4,0.8,5
2018/5/3 2:23,0.3,5,0.4,4,0.1,7
2018/5/3 2:24,0.3,6,0.3,4,0,8
2018/5/3 2:25,0.2,7,0.3,4,0.1,12
2018/5/3 2:26,0.2,7,0.2,4,0.1,12
2018/5/3 2:27,0.2,7,0.2,4,0.1,14
2018/5/3 2:28,0.2,8,0.2,4,0.8,4
2018/5/3 2:29,0.2,8,0.2,4,1,4
2018/5/3 2:30,0.2,7,0.2,4,1,4
2018/5/3 2:31,0.3,6,0.3,4,1.3,4
2018/5/3 2:32,0.4,6,0.4,4,1.3,4
2018/5/3 2:33,0.4,4,0.4,6,0.8,16
2018/5/3 2:34,0.5,1,0.5,1,1.6,15
2018/5/3 2:35,0.6,1,0.6,16,1.4,15
2018/5/3 2:36,0.7,1,0.7,1,1.4,16
2018/5/3 2:37,0.7,1,0.7,1,1,16
2018/5/3 2:38,0.7,1,0.7,1,0.6,16
2018/5/3 2:39,0.8,16,0.8,16,1.6,15
2018/5/3 2:40,0.7,16,0.8,16,1,15
2018/5/3 2:41,0.7,16,0.7,16,0.8,1
2018/5/3 2:42,0.7,16,0.7,16,1,2
2018/5/3 2:43,0.7,16,0.7,16,0.9,2
2018/5/3 2:44,0.6,16,0.7,16,0.4,16
2018/5/3 2:45,0.5,16,0.6,16,0.4,16
2018/5/3 2:46,0.5,16,0.5,16,0.4,2
2018/5/3 2:47,0.4,1,0.5,16,0.6,2
2018/5/3 2:48,0.4,1,0.4,16,0.6,2
2018/5/3 2:49,0.4,1,0.4,16,0.8,2
2018/5/3 2:50,0.3,1,0.4,16,0.5,15
2018/5/3 2:51,0.3,1,0.3,16,0.9,15
2018/5/3 2:52,0.4,1,0.4,16,1.4,16
2018/5/3 2:53,0.5,1,0.5,16,1.6,16
2018/5/3 2:54,0.6,1,0.6,16,1.6,16
2018/5/3 2:55,0.7,1,0.7,1,1.5,16
2018/5/3 2:56,0.7,16,0.7,1,1.1,16
2018/5/3 2:57,0.7,16,0.7,1,1.3,1
2018/5/3 2:58,0.8,16,0.8,16,1.3,1
2018/5/3 2:59,0.8,16,0.8,16,0.8,1
2018/5/3 3:00,0.8,1,0.8,16,0.6,2
2018/5/3 3:01,0.8,1,0.8,16,0.5,16
2018/5/3 3:02,0.7,1,0.7,16,1.6,14
2018/5/3 3:03,0.7,16,0.7,16,1.8,15
2018/5/3 3:04,0.7,16,0.7,16,1.5,15
2018/5/3 3:05,0.7,16,0.7,16,1.8,16
2018/5/3 3:06,0.8,16,0.8,16,1.3,16
2018/5/3 3:07,0.8,1,0.8,16,0.9,2
2018/5/3 3:08,0.8,1,0.8,16,1,3
2018/5/3 3:09,0.9,1,0.9,1,1.6,3
2018/5/3 3:10,0.9,1,0.9,1,1.6,3
2018/5/3 3:11,0.9,1,0.9,1,0.8,8
2018/5/3 3:12,0.9,1,0.9,1,0.3,14
2018/5/3 3:13,0.7,1,0.9,1,0.3,10
2018/5/3 3:14,0.6,2,0.7,1,0.5,3
2018/5/3 3:15,0.5,3,0.6,1,0.5,4
2018/5/3 3:16,0.4,4,0.5,1,0.4,6
2018/5/3 3:17,0.4,4,0.4,1,0.4,3
2018/5/3 3:18,0.4,5,0.4,1,0.8,8
2018/5/3 3:19,0.3,6,0.4,1,0.5,6
2018/5/3 3:20,0.2,6,0.2,1,0.4,5
2018/5/3 3:21,0.2,6,0.2,1,0.5,5
2018/5/3 3:22,0.2,5,0.2,1,0.3,4
2018/5/3 3:23,0.2,5,0.2,1,0.4,4
2018/5/3 3:24,0.2,5,0.2,2,0.1,4
2018/5/3 3:25,0.2,5,0.2,3,0.3,5
2018/5/3 3:26,0.2,5,0.2,4,0.6,5
2018/5/3 3:27,0.2,5,0.2,4,0.5,6
2018/5/3 3:28,0.2,5,0.2,5,0.3,5
2018/5/3 3:29,0.2,5,0.2,6,0.1,4
2018/5/3 3:30,0.1,5,0.2,6,0.3,15
2018/5/3 3:31,0.1,5,0.1,5,0.1,15
2018/5/3 3:32,0.1,4,0.1,5,0.6,16
2018/5/3 3:33,0.1,4,0.1,5,0.8,16
2018/5/3 3:34,0.2,3,0.2,5,0.9,16
2018/5/3 3:35,0.2,2,0.2,5,1.3,16
2018/5/3 3:36,0.3,1,0.3,1,1.1,16
2018/5/3 3:37,0.3,16,0.3,1,1,2
2018/5/3 3:38,0.4,16,0.4,16,0.9,2
2018/5/3 3:39,0.4,16,0.4,16,1,1
2018/5/3 3:40,0.5,16,0.5,16,1.1,1
2018/5/3 3:41,0.6,16,0.6,16,1.1,16
2018/5/3 3:42,0.6,1,0.6,16,0.8,1
2018/5/3 3:43,0.6,1,0.6,16,1.5,16
2018/5/3 3:44,0.7,1,0.7,1,1.8,1
2018/5/3 3:45,0.8,1,0.8,1,1.8,15
2018/5/3 3:46,0.9,1,0.9,1,2.1,15
2018/5/3 3:47,1,16,1,16,2.2,15
2018/5/3 3:48,1.1,16,1.1,16,2.2,16
2018/5/3 3:49,1.2,16,1.2,16,2.5,16
2018/5/3 3:50,1.3,16,1.3,16,2.2,16
2018/5/3 3:51,1.3,16,1.3,16,1.4,15
2018/5/3 3:52,1.3,16,1.3,16,1.1,16
2018/5/3 3:53,1.3,16,1.3,16,1.5,15
2018/5/3 3:54,1.3,16,1.3,16,1.3,16
2018/5/3 3:55,1.2,16,1.3,16,1.1,16
2018/5/3 3:56,1.1,16,1.2,16,1.3,16
2018/5/3 3:57,1,16,1.1,16,0.8,2
2018/5/3 3:58,0.8,16,0.9,16,0.4,1
2018/5/3 3:59,0.6,16,0.8,16,0.1,1
2018/5/3 4:00,0.5,16,0.6,16,0.6,2
2018/5/3 4:01,0.5,16,0.5,16,0.6,1
2018/5/3 4:02,0.4,16,0.5,16,0.5,14
2018/5/3 4:03,0.4,16,0.4,16,0.5,13
2018/5/3 4:04,0.3,15,0.4,16,0.4,14
2018/5/3 4:05,0.3,15,0.3,16,0,14
2018/5/3 4:06,0.2,15,0.2,16,0,14
2018/5/3 4:07,0.2,15,0.2,16,0.1,14
2018/5/3 4:08,0.2,15,0.2,16,0.6,16
2018/5/3 4:09,0.2,15,0.2,16,1,16
2018/5/3 4:10,0.2,15,0.2,16,0.6,16
2018/5/3 4:11,0.2,15,0.2,16,0.8,16
2018/5/3 4:12,0.3,15,0.3,16,1.3,16
2018/5/3 4:13,0.3,15,0.3,16,0.9,16
2018/5/3 4:14,0.3,15,0.3,15,0.9,16
2018/5/3 4:15,0.3,15,0.3,15,0.6,16
2018/5/3 4:16,0.4,16,0.4,16,0.4,16
2018/5/3 4:17,0.4,16,0.4,16,0.5,1
2018/5/3 4:18,0.4,16,0.4,16,0.5,1
2018/5/3 4:19,0.3,16,0.4,16,0.3,1
2018/5/3 4:20,0.3,1,0.3,16,0.1,2
2018/5/3 4:21,0.3,1,0.3,16,0.1,2
2018/5/3 4:22,0.2,1,0.3,16,0.1,3
2018/5/3 4:23,0.1,2,0.2,16,0,4
2018/5/3 4:24,0.1,2,0.1,16,0.1,15
2018/5/3 4:25,0.1,2,0.1,16,0.3,12
2018/5/3 4:26,0.1,1,0.1,16,0.6,13
2018/5/3 4:27,0.1,1,0.1,16,0.8,13
2018/5/3 4:28,0.1,16,0.1,16,0.5,12
2018/5/3 4:29,0.1,15,0.1,16,0.3,12
2018/5/3 4:30,0.1,14,0.1,1,0.1,12
2018/5/3 4:31,0.1,13,0.1,1,0.1,12
2018/5/3 4:32,0.1,13,0.1,1,0.3,10
2018/5/3 4:33,0.1,12,0.1,2,0.1,10
2018/5/3 4:34,0.1,12,0.1,2,0,10
2018/5/3 4:35,0.1,11,0.1,2,0.1,7
2018/5/3 4:36,0.2,11,0.2,11,0.9,6
2018/5/3 4:37,0.2,10,0.2,11,1,6
2018/5/3 4:38,0.2,9,0.2,11,0.9,7
2018/5/3 4:39,0.2,9,0.2,11,0.4,10
2018/5/3 4:40,0.2,9,0.2,11,0.3,10
2018/5/3 4:41,0.2,8,0.2,11,0.4,7
2018/5/3 4:42,0.2,8,0.2,11,0.4,10
2018/5/3 4:43,0.3,8,0.3,8,0.5,7
2018/5/3 4:44,0.3,7,0.3,8,0.5,8
2018/5/3 4:45,0.3,7,0.3,8,0,7
2018/5/3 4:46,0.2,8,0.3,8,0,8
2018/5/3 4:47,0.1,8,0.2,8,0.1,7
2018/5/3 4:48,0.1,8,0.1,8,0.9,7
2018/5/3 4:49,0.2,7,0.2,8,0.9,7
2018/5/3 4:50,0.2,7,0.2,8,0.6,9
2018/5/3 4:51,0.2,7,0.2,8,0.4,10
2018/5/3 4:52,0.2,7,0.2,8,0.4,2
2018/5/3 4:53,0.2,6,0.2,8,0.6,5
2018/5/3 4:54,0.2,6,0.2,7,0.4,4
2018/5/3 4:55,0.2,5,0.2,7,0.1,11
2018/5/3 4:56,0.2,5,0.2,8,0.3,13
2018/5/3 4:57,0.2,4,0.2,8,0.1,14
2018/5/3 4:58,0.2,4,0.2,8,0.3,6
2018/5/3 4:59,0.2,4,0.2,7,0.6,4
2018/5/3 5:00,0.2,3,0.2,7,0.6,3
2018/5/3 5:01,0.2,3,0.2,7,0.6,2
2018/5/3 5:02,0.2,3,0.2,7,0.5,16
2018/5/3 5:03,0.2,2,0.2,6,0.5,16
2018/5/3 5:04,0.2,2,0.2,6,0.6,16
2018/5/3 5:05,0.2,2,0.2,5,0.3,2
2018/5/3 5:06,0.2,2,0.2,5,0.4,13
2018/5/3 5:07,0.3,2,0.3,2,0.8,13
2018/5/3 5:08,0.4,1,0.4,2,1.5,14
2018/5/3 5:09,0.5,16,0.5,1,1.5,13
2018/5/3 5:10,0.5,16,0.5,1,0.9,14
2018/5/3 5:11,0.5,15,0.5,1,0.8,14
2018/5/3 5:12,0.5,15,0.5,1,0.4,15
2018/5/3 5:13,0.5,15,0.5,1,0.9,6
2018/5/3 5:14,0.5,15,0.5,1,0.9,6
2018/5/3 5:15,0.5,14,0.5,1,0.8,5
2018/5/3 5:16,0.5,14,0.5,1,0.5,9
2018/5/3 5:17,0.5,13,0.5,1,0.8,10
2018/5/3 5:18,0.5,11,0.6,12,1.3,11
2018/5/3 5:19,0.5,10,0.5,12,1.5,8
2018/5/3 5:20,0.5,9,0.5,12,1.1,8
2018/5/3 5:21,0.5,8,0.5,12,1.1,9
2018/5/3 5:22,0.6,8,0.6,12,0.6,9
2018/5/3 5:23,0.5,8,0.6,12,0.8,7
2018/5/3 5:24,0.5,8,0.5,12,1,8
2018/5/3 5:25,0.6,9,0.6,12,1.4,9
2018/5/3 5:26,0.7,9,0.7,9,1.4,9
2018/5/3 5:27,0.7,8,0.7,9,1.1,8
2018/5/3 5:28,0.7,8,0.7,9,0.9,9
2018/5/3 5:29,0.6,8,0.7,9,1.1,8
2018/5/3 5:30,0.6,8,0.6,9,1.1,8
2018/5/3 5:31,0.6,8,0.6,9,1.4,8
2018/5/3 5:32,0.7,8,0.7,9,2.1,8
2018/5/3 5:33,0.8,8,0.8,8,1.8,7
2018/5/3 5:34,0.9,8,0.9,8,2.1,8
2018/5/3 5:35,0.9,8,0.9,8,1.6,7
2018/5/3 5:36,0.9,8,0.9,8,1.5,9
2018/5/3 5:37,0.9,8,0.9,8,1.3,7
2018/5/3 5:38,1,8,1,8,1.6,7
2018/5/3 5:39,1.1,8,1.1,8,2.7,7
2018/5/3 5:40,1.3,8,1.3,8,2.9,7
2018/5/3 5:41,1.5,8,1.5,8,3.9,8
2018/5/3 5:42,1.5,8,1.5,8,3,8
2018/5/3 5:43,1.6,8,1.6,8,3.5,8
2018/5/3 5:44,1.7,8,1.7,8,3.5,8
2018/5/3 5:45,1.8,8,1.8,8,4.2,8
2018/5/3 5:46,1.9,8,1.9,8,4.3,8
2018/5/3 5:47,2,8,2,8,4.1,9
2018/5/3 5:48,2.2,9,2.2,8,4.3,10
2018/5/3 5:49,2.3,9,2.3,9,5.6,9
2018/5/3 5:50,2.3,9,2.3,9,3.9,8
2018/5/3 5:51,2.3,9,2.3,9,4.8,7
2018/5/3 5:52,2.5,9,2.5,9,5.5,10
2018/5/3 5:53,2.5,9,2.5,9,3.3,9
2018/5/3 5:54,2.5,10,2.5,9,4.2,10
2018/5/3 5:55,2.3,10,2.5,9,2.6,11
2018/5/3 5:56,2.1,10,2.3,9,1,8
2018/5/3 5:57,2,10,2.1,9,1.4,10
2018/5/3 5:58,2,10,2,9,3.7,11
2018/5/3 5:59,1.9,10,2,9,2.7,14
2018/5/3 6:00,1.8,11,1.9,9,2.5,13
2018/5/3 6:01,1.6,11,1.8,9,1.6,10
2018/5/3 6:02,1.3,11,1.6,9,0.8,14
2018/5/3 6:03,1.2,11,1.3,9,2.9,8
2018/5/3 6:04,1.1,11,1.2,10,3.5,11
2018/5/3 6:05,1.1,11,1.1,10,1.8,10
2018/5/3 6:06,1.2,11,1.2,10,2.5,9
2018/5/3 6:07,1.2,11,1.2,10,2.5,9
2018/5/3 6:08,1.1,11,1.2,10,5.4,8
2018/5/3 6:09,1.1,10,1.1,11,3.6,9
2018/5/3 6:10,1.1,10,1.1,11,2.5,9
2018/5/3 6:11,1,10,1.1,11,2.4,8
2018/5/3 6:12,1,10,1,11,0.8,16
2018/5/3 6:13,1,10,1,11,0.8,14
2018/5/3 6:14,0.9,10,1,11,0.8,14
2018/5/3 6:15,0.9,10,0.9,11,1,9
2018/5/3 6:16,0.8,10,0.9,11,0.9,10
2018/5/3 6:17,0.8,10,0.8,11,1.9,8
2018/5/3 6:18,0.8,10,0.8,11,2.4,11
2018/5/3 6:19,0.8,10,0.8,10,2.7,10
2018/5/3 6:20,0.9,10,0.9,10,3.8,10
2018/5/3 6:21,1,10,1,10,3.1,10
2018/5/3 6:22,1.1,10,1.1,10,2.4,8
2018/5/3 6:23,1.2,10,1.2,10,2,10
2018/5/3 6:24,1.2,10,1.2,10,2,10
2018/5/3 6:25,1.3,10,1.3,10,2.6,9
2018/5/3 6:26,1.4,10,1.4,10,2.1,8
2018/5/3 6:27,1.5,10,1.5,10,2.9,9
2018/5/3 6:28,1.6,10,1.6,10,3.2,10
2018/5/3 6:29,1.6,10,1.6,10,2.4,10
2018/5/3 6:30,1.4,10,1.6,10,2.4,9
2018/5/3 6:31,1.4,10,1.4,10,2.7,9
2018/5/3 6:32,1.5,10,1.5,10,3.7,10
2018/5/3 6:33,1.6,10,1.6,10,3.8,8
2018/5/3 6:34,1.5,10,1.6,10,2.5,9
2018/5/3 6:35,1.5,9,1.6,10,2,10
2018/5/3 6:36,1.4,10,1.5,10,1.1,5
2018/5/3 6:37,1.4,10,1.4,10,3,14
2018/5/3 6:38,1.5,10,1.5,10,3.6,11
2018/5/3 6:39,1.5,10,1.5,10,3.1,12
2018/5/3 6:40,1.7,11,1.7,11,6,13
2018/5/3 6:41,1.9,11,1.9,11,7.1,11
2018/5/3 6:42,2,12,2,12,7.8,16
2018/5/3 6:43,2.4,13,2.4,13,7,15
2018/5/3 6:44,2.5,14,2.5,13,4.9,13
2018/5/3 6:45,2.6,14,2.6,14,4.5,15
2018/5/3 6:46,2.7,14,2.7,14,3.8,14
2018/5/3 6:47,2.9,14,2.9,14,6.8,15
2018/5/3 6:48,3.2,14,3.2,14,10.1,15
2018/5/3 6:49,3.5,15,3.5,15,8.4,16
2018/5/3 6:50,3.5,15,3.6,15,4.8,15
2018/5/3 6:51,3.5,15,3.5,15,5.4,16
2018/5/3 6:52,3.5,15,3.5,15,6.9,16
2018/5/3 6:53,3.2,15,3.4,15,7.4,15
2018/5/3 6:54,3.4,15,3.4,15,6.1,15
2018/5/3 6:55,3.5,15,3.5,15,6.2,16
2018/5/3 6:56,3.8,15,3.8,15,6.5,16
2018/5/3 6:57,3.5,16,3.7,15,2.6,16
2018/5/3 6:58,3.3,15,3.4,15,4.7,15
2018/5/3 6:59,2.9,15,3.2,15,4.4,16
2018/5/3 7:00,2.9,15,2.9,15,4.9,16
2018/5/3 7:01,2.8,15,2.9,15,4.2,16
2018/5/3 7:02,2.7,15,2.8,15,3.9,14
2018/5/3 7:03,2.5,15,2.7,15,3.3,16
2018/5/3 7:04,2.4,15,2.5,15,3.9,12
2018/5/3 7:05,2.3,15,2.5,15,4.7,12
2018/5/3 7:06,2.2,15,2.3,15,3.6,15
2018/5/3 7:07,2.2,15,2.2,16,3.5,14
2018/5/3 7:08,2.1,14,2.2,15,3,12
2018/5/3 7:09,2.1,14,2.1,15,2.4,15
2018/5/3 7:10,1.9,14,2,15,2.5,13
2018/5/3 7:11,1.7,14,1.9,15,1,12
2018/5/3 7:12,1.5,14,1.7,15,1.9,1
2018/5/3 7:13,1.5,14,1.5,15,2.2,14
2018/5/3 7:14,1.4,14,1.5,15,3.3,1
2018/5/3 7:15,1.3,14,1.4,15,4.5,16
2018/5/3 7:16,1.6,14,1.6,15,7.5,14
2018/5/3 7:17,1.6,14,1.6,15,4.4,15
2018/5/3 7:18,1.7,14,1.7,14,5,15
2018/5/3 7:19,1.8,14,1.8,14,4.3,11
2018/5/3 7:20,1.9,14,1.9,14,3.9,12
2018/5/3 7:21,2,14,2,14,2.5,14
2018/5/3 7:22,2,14,2,14,2.4,12
2018/5/3 7:23,2.1,14,2.1,14,4.2,13
2018/5/3 7:24,2.3,14,2.3,14,4.2,13
2018/5/3 7:25,2.3,14,2.3,14,3.2,14
2018/5/3 7:26,2.1,14,2.3,14,3.5,13
2018/5/3 7:27,2.1,13,2.1,14,3.7,14
2018/5/3 7:28,2,13,2.1,14,4.2,10
2018/5/3 7:29,2.3,13,2.3,14,8.4,13
2018/5/3 7:30,2.6,13,2.6,13,8.2,13
2018/5/3 7:31,2.8,13,2.8,13,5.2,12
2018/5/3 7:32,2.9,13,2.9,13,3.8,12
2018/5/3 7:33,3,13,3,13,6.1,12
2018/5/3 7:34,3,13,3.1,13,6,15
2018/5/3 7:35,3.1,13,3.1,13,7.2,13
2018/5/3 7:36,3.4,13,3.4,13,6.5,13
2018/5/3 7:37,3.6,13,3.6,13,7.1,14
2018/5/3 7:38,3.6,13,3.6,13,4.8,15
2018/5/3 7:39,3.4,13,3.6,13,5.1,15
2018/5/3 7:40,3.2,14,3.4,13,7.5,15
2018/5/3 7:41,3.1,14,3.1,13,6,13
2018/5/3 7:42,3.4,14,3.4,13,7.9,12
2018/5/3 7:43,3.4,14,3.5,13,6.2,13
2018/5/3 7:44,3.4,14,3.4,13,5.1,12
2018/5/3 7:45,3.3,13,3.4,13,5.6,14
2018/5/3 7:46,3.1,14,3.3,13,4.9,15
2018/5/3 7:47,3,13,3.1,13,6.7,12
2018/5/3 7:48,3.1,13,3.2,13,6.3,15
2018/5/3 7:49,3.2,13,3.3,14,6,14
2018/5/3 7:50,3.3,13,3.3,14,5.6,12
2018/5/3 7:51,3.5,13,3.5,14,6.1,13
2018/5/3 7:52,3.5,13,3.5,14,6.1,12
2018/5/3 7:53,3.5,13,3.5,13,8.1,13
2018/5/3 7:54,3.6,13,3.6,13,5.4,13
2018/5/3 7:55,3.6,13,3.6,13,4.3,13
2018/5/3 7:56,3.6,13,3.7,13,3.8,13
2018/5/3 7:57,3.7,13,3.7,13,7.4,13
2018/5/3 7:58,3.7,13,3.7,13,5.5,14
2018/5/3 7:59,3.7,13,3.7,13,5.1,14
2018/5/3 8:00,3.5,13,3.6,13,4.1,14
2018/5/3 8:01,3.4,13,3.5,13,4.8,12
2018/5/3 8:02,3.2,13,3.5,13,4.9,12
2018/5/3 8:03,3.1,13,3.2,13,5.4,13
2018/5/3 8:04,3.1,13,3.1,13,5.7,13
2018/5/3 8:05,3.1,13,3.1,13,4.2,13
2018/5/3 8:06,3.3,13,3.3,13,5.1,15
2018/5/3 8:07,3.2,13,3.3,13,7.5,12
2018/5/3 8:08,3.2,13,3.3,13,6.5,13
2018/5/3 8:09,3.2,13,3.3,13,6.4,10
2018/5/3 8:10,3.4,13,3.4,13,7.5,11
2018/5/3 8:11,3.5,13,3.5,13,8.5,12
2018/5/3 8:12,3.6,13,3.6,13,8.5,13
2018/5/3 8:13,3.7,13,3.7,13,9.1,12
2018/5/3 8:14,3.7,13,3.7,13,6,15
2018/5/3 8:15,3.8,13,3.8,13,6.4,15
2018/5/3 8:16,3.8,13,3.8,13,4.8,16
2018/5/3 8:17,4,13,4.1,13,12.3,13
2018/5/3 8:18,4.4,13,4.4,13,10.5,13
2018/5/3 8:19,4.3,13,4.4,13,6.2,13
2018/5/3 8:20,4.2,13,4.3,13,4.7,14
2018/5/3 8:21,4,14,4.3,13,4.3,13
2018/5/3 8:22,4.1,13,4.1,13,7.9,12
2018/5/3 8:23,4.3,13,4.3,13,12.5,12
2018/5/3 8:24,4.4,13,4.5,13,11,11
2018/5/3 8:25,4.3,13,4.4,13,4.4,10
2018/5/3 8:26,4.4,13,4.4,13,7.6,13
2018/5/3 8:27,4.3,13,4.4,13,7.1,13
2018/5/3 8:28,3.9,13,4.3,13,5.8,11
2018/5/3 8:29,4,13,4,13,6.8,12
2018/5/3 8:30,4,13,4.1,13,5.2,16
2018/5/3 8:31,4.1,13,4.1,13,7.2,16
2018/5/3 8:32,3.8,14,4.1,13,3.7,14
2018/5/3 8:33,3.7,14,3.8,13,8.5,16
2018/5/3 8:34,3.6,14,3.7,13,8.9,15
2018/5/3 8:35,3.9,14,3.9,13,8.9,15
2018/5/3 8:36,3.9,15,4,13,6.8,16
2018/5/3 8:37,3.7,15,3.9,13,5.2,16
2018/5/3 8:38,3.7,15,3.8,13,4.9,16
2018/5/3 8:39,3.8,15,3.8,13,8.4,14
2018/5/3 8:40,4.1,15,4.1,13,9,15
2018/5/3 8:41,4.1,15,4.1,13,7,14
2018/5/3 8:42,4.4,15,4.4,15,7.2,16
2018/5/3 8:43,4.2,15,4.4,15,6.5,15
2018/5/3 8:44,3.8,15,4.1,15,3,12
2018/5/3 8:45,3.6,15,3.8,15,6.2,15
2018/5/3 8:46,3.4,15,3.6,15,5.1,16
2018/5/3 8:47,3.4,15,3.4,15,5.8,15
2018/5/3 8:48,3.5,15,3.5,15,5.4,15
2018/5/3 8:49,3.2,15,3.4,15,7.6,13
2018/5/3 8:50,3.1,15,3.2,15,7.8,15
2018/5/3 8:51,2.9,15,3.1,15,4.5,1
2018/5/3 8:52,2.6,15,2.8,15,3.3,15
2018/5/3 8:53,2.5,15,2.6,15,3.9,16
2018/5/3 8:54,2.5,15,2.5,15,3,1
2018/5/3 8:55,2.5,14,2.5,15,4.4,13
2018/5/3 8:56,2.6,14,2.6,15,5.6,13
2018/5/3 8:57,2.5,14,2.6,15,3.2,12
2018/5/3 8:58,2.4,13,2.5,15,3.2,9
2018/5/3 8:59,2.4,13,2.4,15,5.6,10
2018/5/3 9:00,2.1,13,2.3,15,4.3,10
2018/5/3 9:01,2.4,13,2.4,15,5.8,12
2018/5/3 9:02,2.6,12,2.6,15,5.1,13
2018/5/3 9:03,2.8,12,2.8,12,7.2,12
2018/5/3 9:04,3,12,3,12,5.6,10
2018/5/3 9:05,3.2,12,3.2,12,7.6,12
2018/5/3 9:06,3.1,12,3.2,12,6,12
2018/5/3 9:07,3.3,12,3.3,12,6,12
2018/5/3 9:08,3.4,12,3.4,12,7.4,15
2018/5/3 9:09,3.4,12,3.5,12,4.7,13
2018/5/3 9:10,3.4,12,3.4,12,3.9,9
2018/5/3 9:11,3.2,12,3.4,12,4.5,9
2018/5/3 9:12,3.2,12,3.2,12,4.9,13
2018/5/3 9:13,3.2,12,3.3,12,7.4,12
2018/5/3 9:14,3.3,12,3.3,12,5.1,12
2018/5/3 9:15,3.2,13,3.3,12,5,14
2018/5/3 9:16,3,13,3.2,12,4.8,12
2018/5/3 9:17,2.9,13,3,12,5,13
2018/5/3 9:18,2.8,12,2.9,12,3.8,12
2018/5/3 9:19,2.7,13,2.8,12,3.3,10
2018/5/3 9:20,2.6,13,2.7,12,3.5,11
2018/5/3 9:21,2.6,13,2.6,12,5.2,12
2018/5/3 9:22,2.5,13,2.6,12,3,12
2018/5/3 9:23,2.3,12,2.5,12,3.5,9
2018/5/3 9:24,2.1,12,2.2,12,4.7,12
2018/5/3 9:25,2.2,12,2.2,13,7.8,1
2018/5/3 9:26,2.2,12,2.3,13,3.9,13
2018/5/3 9:27,2.2,12,2.2,13,4.4,12
2018/5/3 9:28,2.2,12,2.2,12,4.5,12
2018/5/3 9:29,2.4,11,2.4,13,5.4,10
2018/5/3 9:30,2.6,11,2.6,13,4.7,11
2018/5/3 9:31,2.7,11,2.7,11,6.2,12
2018/5/3 9:32,2.9,11,2.9,11,8.9,13
2018/5/3 9:33,3.1,12,3.1,12,6,12
2018/5/3 9:34,3.2,12,3.2,12,4.9,11
2018/5/3 9:35,3,12,3.2,12,3.1,9
2018/5/3 9:36,2.9,12,2.9,12,4.9,12
2018/5/3 9:37,3.1,12,3.1,12,6.9,10
2018/5/3 9:38,3.1,12,3.2,12,5.4,15
2018/5/3 9:39,3.1,12,3.1,12,7.6,16
2018/5/3 9:40,2.9,12,3.1,12,3.2,8
2018/5/3 9:41,2.8,12,2.9,12,4.3,10
2018/5/3 9:42,2.7,12,2.7,12,5.2,11
2018/5/3 9:43,2.7,12,2.7,12,7.4,13
2018/5/3 9:44,2.6,12,2.7,12,4.8,11
2018/5/3 9:45,2.8,12,2.8,12,6.7,13
2018/5/3 9:46,3,12,3,12,7.6,13
2018/5/3 9:47,3.1,12,3.2,12,8.4,11
2018/5/3 9:48,3.4,12,3.4,12,10.5,12
2018/5/3 9:49,3.6,12,3.6,12,9.3,13
2018/5/3 9:50,3.7,12,3.7,12,4.2,12
2018/5/3 9:51,3.9,12,3.9,12,7.4,11
2018/5/3 9:52,4.1,12,4.1,12,8.1,9
2018/5/3 9:53,4,12,4.1,12,6,12
2018/5/3 9:54,4.1,12,4.1,12,5.5,11
2018/5/3 9:55,4.1,12,4.2,12,5.4,11
2018/5/3 9:56,4,12,4.1,12,6.9,10
2018/5/3 9:57,3.9,12,4,12,8.9,9
2018/5/3 9:58,4.1,11,4.1,12,10.5,11
2018/5/3 9:59,4,11,4,12,7.7,10
2018/5/3 10:00,4.1,11,4.2,12,6.9,10
2018/5/3 10:01,3.9,11,4.1,12,3.1,11
2018/5/3 10:02,3.6,11,3.9,12,3.3,11
2018/5/3 10:03,3.6,11,3.7,12,7,10
2018/5/3 10:04,3.5,11,3.6,12,4.7,12
2018/5/3 10:05,3.8,11,3.8,11,7.8,14
2018/5/3 10:06,3.7,11,3.8,11,5.4,12
2018/5/3 10:07,3.6,11,3.7,11,4.7,12
2018/5/3 10:08,3.1,11,3.6,11,5,10
2018/5/3 10:09,3,12,3.2,11,6.1,10
2018/5/3 10:10,2.9,12,3,11,5,12
2018/5/3 10:11,3.3,12,3.3,11,11.9,9
2018/5/3 10:12,3.6,11,3.6,11,10.7,9
2018/5/3 10:13,3.6,11,3.6,11,5.5,11
2018/5/3 10:14,3.6,12,3.7,11,5.4,14
2018/5/3 10:15,3.3,11,3.6,11,3.6,12
2018/5/3 10:16,3.2,11,3.3,11,5,11
2018/5/3 10:17,3.2,11,3.2,11,4.1,12
2018/5/3 10:18,3,11,3.1,11,2.5,11
2018/5/3 10:19,2.8,11,3,11,1.5,10
2018/5/3 10:20,2.7,11,2.8,11,4.9,12
2018/5/3 10:21,2.5,11,2.7,11,10.6,10
2018/5/3 10:22,2.5,11,2.6,11,9.8,9
2018/5/3 10:23,2.4,11,2.5,11,5,12
2018/5/3 10:24,2.5,11,2.5,12,5.6,13
2018/5/3 10:25,2.6,11,2.6,11,6,10
2018/5/3 10:26,2.5,12,2.6,11,4.2,12
2018/5/3 10:27,2.5,11,2.5,11,3.1,12
2018/5/3 10:28,2.8,11,2.8,11,6.3,8
2018/5/3 10:29,3.1,12,3.1,12,8.5,13
2018/5/3 10:30,3.3,12,3.3,12,7,12
2018/5/3 10:31,3.1,12,3.3,12,4.8,11
2018/5/3 10:32,3.2,12,3.2,12,11.7,11
2018/5/3 10:33,3.5,12,3.5,12,7.9,11
2018/5/3 10:34,3.4,11,3.5,12,5.1,10
2018/5/3 10:35,3.4,11,3.4,12,4.7,11
2018/5/3 10:36,3.6,11,3.6,11,6.8,12
2018/5/3 10:37,3.7,11,3.7,11,4.4,13
2018/5/3 10:38,3.6,12,3.7,11,4.2,13
2018/5/3 10:39,3.4,12,3.7,11,4.5,15
2018/5/3 10:40,3.4,11,3.4,11,7.7,11
2018/5/3 10:41,3.3,11,3.4,11,3.6,11
2018/5/3 10:42,3.1,11,3.3,11,3.9,9
2018/5/3 10:43,3,11,3.1,11,7,10
2018/5/3 10:44,3.1,11,3.1,11,8.2,10
2018/5/3 10:45,3.2,11,3.2,11,7.5,10
2018/5/3 10:46,3.1,11,3.2,11,4.4,11
2018/5/3 10:47,3,11,3.1,11,4.5,11
2018/5/3 10:48,3,11,3,12,7,13
2018/5/3 10:49,3.3,11,3.3,12,6.4,12
2018/5/3 10:50,3.3,11,3.3,11,6.1,13
2018/5/3 10:51,3.5,12,3.5,12,5.1,12
2018/5/3 10:52,3.7,12,3.7,12,5.8,13
2018/5/3 10:53,3.6,12,3.7,12,6.5,13
2018/5/3 10:54,3.5,12,3.6,12,4.1,12
2018/5/3 10:55,3.3,12,3.4,12,2.5,15
2018/5/3 10:56,3.2,13,3.2,12,3.7,10
2018/5/3 10:57,3.3,13,3.3,12,6.1,12
2018/5/3 10:58,3.3,13,3.4,12,5.6,14
2018/5/3 10:59,3,13,3.3,12,3.8,15
2018/5/3 11:00,2.9,13,3,12,4.9,16
2018/5/3 11:01,2.8,13,2.9,12,4.2,16
2018/5/3 11:02,2.6,14,2.8,12,4.2,15
2018/5/3 11:03,2.5,14,2.6,12,5.4,1
2018/5/3 11:04,2.5,14,2.5,12,4.8,12
2018/5/3 11:05,2.7,14,2.7,13,4.3,12
2018/5/3 11:06,2.8,14,2.8,13,5,13
2018/5/3 11:07,2.8,14,2.8,13,5.4,16
2018/5/3 11:08,2.8,14,2.8,13,7.2,15
2018/5/3 11:09,2.7,14,2.8,13,5.5,15
2018/5/3 11:10,2.8,14,2.8,13,6.2,13
2018/5/3 11:11,3,14,3,14,5.2,14
2018/5/3 11:12,2.9,13,3,14,3,12
2018/5/3 11:13,2.8,13,2.9,14,2.5,11
2018/5/3 11:14,3,13,3,14,7.5,10
2018/5/3 11:15,3.3,12,3.3,12,8.3,10
2018/5/3 11:16,3.5,12,3.5,12,7.9,11
2018/5/3 11:17,3.5,12,3.6,12,7.1,11
2018/5/3 11:18,3.5,11,3.6,12,5,12
2018/5/3 11:19,3.6,11,3.6,12,4.2,11
2018/5/3 11:20,3.4,11,3.6,12,4.9,10
2018/5/3 11:21,3.4,11,3.4,12,6.1,9
2018/5/3 11:22,3.4,11,3.4,12,5.2,11
2018/5/3 11:23,3.6,11,3.6,12,4.9,11